Location: Cosy Dell
(34.2789°N, 117.4537°W)
Time: 00:26:23
(UTC+00:00)

Terra - Pass Details

Date: 14 July 2020
Orbit: 702 x 703 km, 98.2° (Epoch: 12 August)

Event Time Altitude Azimuth Distance (km) Brightness Sun altitude
Exits shadow 07:14:43 12° 283° (WNW) 2,020 4.4 -33.3°
Drops below altitude 10° 07:15:47 10° 295° (WNW) 2,171 4.7 -33.3°
Sets 07:19:19 0° 323° (NW) 3,095 6.0 -33.5°
